{"data":{"norad_id":25924,"intl_designator":"1999-053A","name":"ABS-6","alt_names":[],"object_type":"PAYLOAD","status":"ACTIVE","operator":null,"country":"ABS","launch_date":"1999-09-26","launch_site_code":"TYMSC","launch_vehicle":null,"mission":null,"orbit_class":"UNKNOWN","rcs_meters":39.8107,"size_class":null,"mass_kg":null,"dimensions":null,"purposes":["comms"],"wikipedia_slug":null,"has_3d_model":false,"image_url":null,"decayed_at":null,"tle_current":{"epoch":"2026-09-19T21:08:57.281856Z","epoch_age_seconds":57684,"freshness":"FRESH","line1":"1 25924U 99053A   26262.88121854  .00000000  00000+0  00000+0 0  9991","line2":"2 25924   0.0272 136.9414 0001341  61.4663 276.6272  1.00269943 98797","mean_motion":1.00269943,"eccentricity":0.0001341,"inclination_deg":0.0272,"raan_deg":136.9414,"arg_perigee_deg":61.4663,"mean_anomaly_deg":276.6272,"bstar":0,"rev_number":9879,"period_min":1436.1232857188,"perigee_km":35781.456988759,"apogee_km":35792.765708366,"semimajor_km":42165.248348562,"source":"CELESTRAK","updated_at":"2026-09-20T09:00:35.117043Z"}}}